EK420 OMDB-YPPH

Flight info

Callsign EK420
Flight time N/A
Altitude 39000
Route ANVIX5G ANVIX L223 TARDI N629 GIDAN P570 KITAL L894 BIBGO DCT LAVOX/N0484F410 DCT KADAP DCT 0500S08730E DCT BEBIM DCT 15S100E 18S105E DCT WONSA DCT CAR B469 TOPIR/N0490F430 L514 AVPAL Q38 JULIM JULIM8V
Aircraft A359/H-SDE2E3GHIJ3J4J5LM1ORWXY/LB1D1

Departure

Time 2026-05-06 09:22
Airport Dubai International Airport (OMDB)

Arrival

Time N/A
Airport Perth International Airport (YPPH)
Time Latitude Longitude Altitude Speed Heading
2026-05-06 08:52 25.24228 55.37168 28 ft 0 kts 31°
2026-05-06 09:10 25.24210 55.37156 27 ft 4 kts 31°
2026-05-06 09:10 25.24187 55.37141 26 ft 4 kts 31°
2026-05-06 09:10 25.24167 55.37129 26 ft 4 kts
2026-05-06 09:11 25.24147 55.37139 26 ft 4 kts 305°
2026-05-06 09:11 25.24135 55.37161 28 ft 1 kts 301°
2026-05-06 09:11 25.24132 55.37165 27 ft 0 kts 301°
2026-05-06 09:14 25.24133 55.37165 27 ft 0 kts 301°
2026-05-06 09:14 25.24147 55.37139 25 ft 8 kts 301°
2026-05-06 09:14 25.24179 55.37079 28 ft 10 kts 301°
2026-05-06 09:15 25.24217 55.37012 28 ft 11 kts 303°
2026-05-06 09:15 25.24259 55.36939 28 ft 12 kts 302°
2026-05-06 09:15 25.24303 55.36859 27 ft 13 kts 302°
2026-05-06 09:15 25.24351 55.36775 28 ft 14 kts 302°
2026-05-06 09:16 25.24424 55.36730 28 ft 12 kts 12°
2026-05-06 09:16 25.24502 55.36778 28 ft 13 kts 31°
2026-05-06 09:16 25.24583 55.36833 28 ft 14 kts 32°
2026-05-06 09:16 25.24669 55.36892 28 ft 15 kts 32°
2026-05-06 09:17 25.24746 55.36868 28 ft 9 kts 319°
2026-05-06 09:17 25.24796 55.36868 28 ft 9 kts
2026-05-06 09:17 25.24848 55.36830 28 ft 11 kts 295°
2026-05-06 09:17 25.24869 55.36733 28 ft 14 kts 282°
2026-05-06 09:18 25.24908 55.36632 28 ft 15 kts 300°
2026-05-06 09:18 25.24961 55.36531 28 ft 16 kts 299°
2026-05-06 09:18 25.25019 55.36427 28 ft 16 kts 302°
2026-05-06 09:18 25.25081 55.36318 28 ft 17 kts 302°
2026-05-06 09:19 25.25143 55.36204 28 ft 18 kts 301°
2026-05-06 09:19 25.25208 55.36086 28 ft 18 kts 302°
2026-05-06 09:19 25.25276 55.35965 28 ft 19 kts 302°
2026-05-06 09:19 25.25345 55.35842 28 ft 19 kts 302°
2026-05-06 09:20 25.25413 55.35743 28 ft 13 kts 333°
2026-05-06 09:20 25.25495 55.35766 28 ft 13 kts 30°
2026-05-06 09:20 25.25571 55.35820 28 ft 12 kts 42°
2026-05-06 09:20 25.25582 55.35902 28 ft 11 kts 113°
2026-05-06 09:21 25.25576 55.35914 28 ft 1 kts 117°
2026-05-06 09:21 25.25560 55.35947 28 ft 8 kts 118°
2026-05-06 09:21 25.25523 55.36011 28 ft 10 kts 122°
2026-05-06 09:21 25.25505 55.36045 28 ft 17 kts 121°
2026-05-06 09:22 25.25333 55.36354 28 ft 80 kts 122°
2026-05-06 09:22 25.24936 55.37070 28 ft 137 kts 122°
2026-05-06 09:22 25.24342 55.38131 40 ft 184 kts 120°
2026-05-06 09:22 25.23684 55.39301 717 ft 176 kts 122°
2026-05-06 09:23 25.23039 55.40438 1297 ft 176 kts 125°
2026-05-06 09:23 25.22346 55.41614 1490 ft 189 kts 127°
2026-05-06 09:23 25.21583 55.42855 1746 ft 200 kts 127°
2026-05-06 09:23 25.20776 55.44160 2071 ft 212 kts 126°
2026-05-06 09:24 25.19948 55.45603 2331 ft 229 kts 123°
2026-05-06 09:24 25.19145 55.47135 2895 ft 232 kts 122°
2026-05-06 09:24 25.18346 55.48685 3546 ft 233 kts 122°
2026-05-06 09:24 25.17521 55.50238 4164 ft 234 kts 123°
2026-05-06 09:25 25.16681 55.51779 4783 ft 235 kts 123°
2026-05-06 09:25 25.15820 55.53333 5324 ft 240 kts 123°
2026-05-06 09:25 25.14940 55.54911 5890 ft 242 kts 123°
2026-05-06 09:25 25.14066 55.56470 6518 ft 242 kts 123°
2026-05-06 09:26 25.13178 55.58049 7103 ft 243 kts 123°
2026-05-06 09:26 25.12286 55.59636 7691 ft 244 kts 122°
2026-05-06 09:26 25.11345 55.61212 8287 ft 247 kts 129°
2026-05-06 09:26 25.10179 55.62651 8712 ft 259 kts 135°
2026-05-06 09:27 25.08865 55.64104 9041 ft 275 kts 135°
2026-05-06 09:27 25.07487 55.65611 9575 ft 282 kts 135°
2026-05-06 09:27 25.06093 55.67140 10223 ft 284 kts 135°
2026-05-06 09:27 25.04659 55.68719 10565 ft 299 kts 134°
2026-05-06 09:28 25.03145 55.70391 10841 ft 315 kts 135°
2026-05-06 09:28 25.01561 55.72140 11108 ft 330 kts 135°
2026-05-06 09:28 24.99927 55.73943 11368 ft 344 kts 134°
2026-05-06 09:28 24.98179 55.75873 11629 ft 357 kts 134°
2026-05-06 09:29 24.96420 55.77814 11899 ft 368 kts 134°
2026-05-06 09:29 24.94516 55.79730 12236 ft 376 kts 143°
2026-05-06 09:29 24.92216 55.81140 12715 ft 379 kts 155°
2026-05-06 09:29 24.89780 55.82305 13203 ft 383 kts 156°
2026-05-06 09:30 24.87316 55.83457 13622 ft 387 kts 156°
2026-05-06 09:30 24.84910 55.84806 14029 ft 389 kts 145°
2026-05-06 09:30 24.82905 55.86808 14409 ft 392 kts 129°
2026-05-06 09:30 24.81232 55.89194 14845 ft 395 kts 126°
2026-05-06 09:31 24.79598 55.91638 15234 ft 399 kts 126°
2026-05-06 09:31 24.77873 55.94045 15669 ft 401 kts 130°
2026-05-06 09:31 24.75952 55.96283 16103 ft 404 kts 134°
2026-05-06 09:31 24.73935 55.98407 16517 ft 408 kts 136°
2026-05-06 09:32 24.71837 56.00520 16930 ft 411 kts 137°
2026-05-06 09:32 24.69703 56.02641 17351 ft 414 kts 137°
2026-05-06 09:32 24.67567 56.04779 17745 ft 417 kts 137°
2026-05-06 09:32 24.65420 56.06952 18166 ft 420 kts 136°
2026-05-06 09:33 24.63276 56.09136 18577 ft 421 kts 136°
2026-05-06 09:33 24.61123 56.11341 18923 ft 425 kts 136°
2026-05-06 09:33 24.58949 56.13579 19253 ft 428 kts 136°
2026-05-06 09:33 24.56856 56.15924 19597 ft 431 kts 132°
2026-05-06 09:34 24.54836 56.18377 19947 ft 434 kts 131°
2026-05-06 09:34 24.53510 56.20029 20139 ft 437 kts 131°
2026-05-06 09:34 24.51511 56.22559 20494 ft 440 kts 130°
2026-05-06 09:34 24.49502 56.25127 20789 ft 444 kts 130°
2026-05-06 09:35 24.47487 56.27710 21179 ft 447 kts 130°
2026-05-06 09:35 24.45463 56.30300 21537 ft 449 kts 130°
2026-05-06 09:35 24.43417 56.32911 21876 ft 452 kts 130°
2026-05-06 09:35 24.41354 56.35537 22194 ft 456 kts 130°
2026-05-06 09:36 24.39272 56.38184 22434 ft 461 kts 131°
2026-05-06 09:36 24.37198 56.40818 22858 ft 462 kts 131°
2026-05-06 09:36 24.35097 56.43483 23296 ft 463 kts 131°
2026-05-06 09:36 24.32976 56.46172 23482 ft 469 kts 131°
2026-05-06 09:37 24.30828 56.48893 23711 ft 473 kts 131°
2026-05-06 09:37 24.28682 56.51642 23997 ft 475 kts 129°
2026-05-06 09:37 24.26667 56.54512 24360 ft 476 kts 127°
2026-05-06 09:37 24.24742 56.57467 24730 ft 477 kts 126°
2026-05-06 09:38 24.22835 56.60464 25049 ft 480 kts 125°
2026-05-06 09:38 24.20919 56.63467 25363 ft 483 kts 126°
2026-05-06 09:38 24.18969 56.66487 25701 ft 486 kts 126°
2026-05-06 09:38 24.16994 56.69503 26048 ft 489 kts 127°
2026-05-06 09:39 24.15017 56.72493 26396 ft 492 kts 127°
2026-05-06 09:39 24.12998 56.75530 26738 ft 495 kts 127°
2026-05-06 09:39 24.10960 56.78584 27091 ft 498 kts 127°
2026-05-06 09:39 24.08910 56.81654 27448 ft 501 kts 127°
2026-05-06 09:40 24.06847 56.84741 27781 ft 504 kts 127°
2026-05-06 09:40 24.04768 56.87853 28118 ft 507 kts 127°
2026-05-06 09:40 24.00578 56.94130 28791 ft 513 kts 128°
2026-05-06 09:41 23.98458 56.97294 29104 ft 516 kts 128°
2026-05-06 09:41 23.96329 57.00469 29416 ft 519 kts 128°
2026-05-06 09:41 23.94217 57.03617 29736 ft 522 kts 128°
2026-05-06 09:41 23.92059 57.06831 29981 ft 524 kts 128°
2026-05-06 09:42 23.89896 57.10052 30231 ft 527 kts 128°
2026-05-06 09:42 23.87721 57.13295 30448 ft 530 kts 128°
2026-05-06 09:42 23.85535 57.16554 30648 ft 532 kts 128°
2026-05-06 09:42 23.83341 57.19817 30904 ft 534 kts 128°
2026-05-06 09:43 23.81129 57.23105 31141 ft 536 kts 128°
2026-05-06 09:43 23.78921 57.26383 31457 ft 536 kts 128°
2026-05-06 09:43 23.76716 57.29658 31796 ft 535 kts 128°
2026-05-06 09:43 23.74544 57.32880 32108 ft 534 kts 128°
2026-05-06 09:44 23.72342 57.36147 32414 ft 534 kts 128°
2026-05-06 09:44 23.70117 57.39398 32731 ft 534 kts 130°
2026-05-06 09:44 23.67824 57.42588 32946 ft 535 kts 131°
2026-05-06 09:44 23.65489 57.45756 33261 ft 534 kts 131°
2026-05-06 09:45 23.63163 57.48893 33639 ft 531 kts 131°
2026-05-06 09:45 23.60842 57.52030 33898 ft 532 kts 131°
2026-05-06 09:45 23.58522 57.55182 34149 ft 531 kts 131°
2026-05-06 09:45 23.56214 57.58331 34465 ft 529 kts 131°
2026-05-06 09:46 23.53956 57.61422 34765 ft 528 kts 131°
2026-05-06 09:46 23.51673 57.64552 35068 ft 526 kts 131°
2026-05-06 09:46 23.49401 57.67665 35326 ft 525 kts 131°
2026-05-06 09:46 23.47126 57.70786 35536 ft 525 kts 131°
2026-05-06 09:47 23.44854 57.73897 35828 ft 523 kts 131°
2026-05-06 09:47 23.42591 57.76988 36161 ft 520 kts 131°
2026-05-06 09:47 23.40332 57.80068 36449 ft 518 kts 131°
2026-05-06 09:47 23.38078 57.83140 36654 ft 518 kts 131°
2026-05-06 09:48 23.35837 57.86192 36901 ft 517 kts 131°
2026-05-06 09:48 23.33592 57.89249 37191 ft 515 kts 131°
2026-05-06 09:48 23.31391 57.92244 37419 ft 514 kts 131°
2026-05-06 09:48 23.29155 57.95287 37569 ft 514 kts 131°
2026-05-06 09:49 23.26923 57.98321 37758 ft 513 kts 131°
2026-05-06 09:49 23.24696 58.01349 37988 ft 512 kts 130°
2026-05-06 09:49 23.22520 58.04415 38231 ft 511 kts 128°
2026-05-06 09:49 23.20480 58.07584 38421 ft 510 kts 126°
2026-05-06 09:50 23.18513 58.10791 38597 ft 510 kts 125°
2026-05-06 09:50 23.16561 58.14008 38738 ft 509 kts 125°
2026-05-06 09:50 23.12625 58.20404 38969 ft 509 kts 126°
2026-05-06 09:51 23.08650 58.26729 39056 ft 512 kts 126°
2026-05-06 09:51 23.04606 58.33091 39049 ft 512 kts 127°
2026-05-06 09:52 22.99760 58.38660 39057 ft 504 kts 145°
2026-05-06 09:52 22.93938 58.42859 39057 ft 502 kts 150°
2026-05-06 09:53 22.87952 58.46801 39066 ft 502 kts 151°
2026-05-06 09:53 22.82015 58.50678 39061 ft 502 kts 151°
2026-05-06 09:54 22.76041 58.54608 39062 ft 502 kts 151°
2026-05-06 09:54 22.70070 58.58555 39067 ft 503 kts 151°
2026-05-06 09:55 22.64099 58.62504 39059 ft 502 kts 151°
2026-05-06 09:55 22.58124 58.66449 39062 ft 502 kts 151°
2026-05-06 09:56 22.52150 58.70385 39070 ft 503 kts 150°
2026-05-06 09:56 22.46200 58.74303 39070 ft 503 kts 150°
2026-05-06 09:57 22.40222 58.78237 39065 ft 503 kts 150°
2026-05-06 09:57 22.34240 58.82169 39060 ft 503 kts 150°
2026-05-06 09:58 22.28250 58.86102 39059 ft 503 kts 150°
2026-05-06 09:58 22.22257 58.90035 39056 ft 503 kts 150°
2026-05-06 09:59 22.16324 58.93929 39057 ft 502 kts 150°
2026-05-06 09:59 22.10328 58.97851 39054 ft 502 kts 150°
2026-05-06 10:00 22.04338 59.01765 39060 ft 503 kts 150°
2026-05-06 10:00 21.98354 59.05674 39052 ft 503 kts 150°
2026-05-06 10:01 21.92412 59.09553 39048 ft 503 kts 150°
2026-05-06 10:01 21.86429 59.13455 39054 ft 503 kts 150°
2026-05-06 10:02 21.80438 59.17357 39045 ft 502 kts 150°
2026-05-06 10:02 21.74452 59.21253 39044 ft 502 kts 150°
2026-05-06 10:03 21.68521 59.25109 39045 ft 502 kts 150°
2026-05-06 10:03 21.62540 59.28994 39045 ft 502 kts 150°
2026-05-06 10:04 21.56556 59.32880 39046 ft 502 kts 150°
2026-05-06 10:04 21.50583 59.36754 39035 ft 501 kts 150°
2026-05-06 10:05 21.44617 59.40620 39033 ft 501 kts 150°
2026-05-06 10:05 21.38646 59.44486 39046 ft 501 kts 150°
2026-05-06 10:06 21.32713 59.48323 39049 ft 501 kts 150°
2026-05-06 10:06 21.26750 59.52177 39035 ft 500 kts 150°
2026-05-06 10:07 21.20791 59.56031 39047 ft 500 kts 150°
2026-05-06 10:07 21.14828 59.59873 39048 ft 500 kts 150°
2026-05-06 10:08 21.08856 59.63714 39034 ft 500 kts 150°
2026-05-06 10:08 21.02927 59.67529 39037 ft 500 kts 150°
2026-05-06 10:09 20.96965 59.71367 39048 ft 499 kts 150°
2026-05-06 10:09 20.91002 59.75193 39039 ft 499 kts 150°
2026-05-06 10:10 20.85070 59.78993 39040 ft 499 kts 150°
2026-05-06 10:10 20.79106 59.82812 39051 ft 499 kts 150°
2026-05-06 10:11 20.73151 59.86623 39043 ft 499 kts 150°
2026-05-06 10:11 20.67192 59.90434 39038 ft 498 kts 150°
2026-05-06 10:12 20.61244 59.94234 39046 ft 498 kts 150°
2026-05-06 10:12 20.55290 59.98033 39050 ft 498 kts 150°
2026-05-06 10:13 20.49335 60.01831 39046 ft 498 kts 150°
2026-05-06 10:13 20.43383 60.05622 39029 ft 498 kts 150°
2026-05-06 10:14 20.37439 60.09406 39033 ft 498 kts 150°
2026-05-06 10:14 20.31525 60.13167 39046 ft 498 kts 150°
2026-05-06 10:15 20.25568 60.16952 39048 ft 498 kts 150°
2026-05-06 10:15 20.19615 60.20731 39038 ft 498 kts 150°
2026-05-06 10:16 20.13652 60.24513 39033 ft 498 kts 150°
2026-05-06 10:16 20.07694 60.28289 39050 ft 498 kts 150°
2026-05-06 10:17 20.02177 60.32692 39043 ft 499 kts 140°
2026-05-06 10:17 19.96966 60.37573 39043 ft 500 kts 139°
2026-05-06 10:18 19.91801 60.42519 39047 ft 499 kts 139°
2026-05-06 10:18 19.86627 60.47463 39033 ft 499 kts 139°
2026-05-06 10:19 19.81441 60.52394 39044 ft 500 kts 139°
2026-05-06 10:19 19.76286 60.57281 39042 ft 500 kts 139°
2026-05-06 10:20 19.71106 60.62188 39027 ft 499 kts 139°
2026-05-06 10:20 19.65924 60.67093 39043 ft 499 kts 139°
2026-05-06 10:21 19.60732 60.72004 39034 ft 499 kts 139°
2026-05-06 10:21 19.55543 60.76907 39045 ft 499 kts 139°
2026-05-06 10:22 19.50382 60.81780 39046 ft 499 kts 139°
2026-05-06 10:22 19.45184 60.86682 39044 ft 500 kts 139°
2026-05-06 10:23 19.39982 60.91585 39045 ft 500 kts 139°
2026-05-06 10:23 19.34786 60.96477 39043 ft 500 kts 139°
2026-05-06 10:24 19.29583 61.01372 39041 ft 500 kts 139°
2026-05-06 10:24 19.24405 61.06237 39040 ft 501 kts 139°
2026-05-06 10:25 19.19187 61.11138 39040 ft 502 kts 139°
2026-05-06 10:25 19.13967 61.16036 39043 ft 502 kts 139°
2026-05-06 10:26 19.08735 61.20941 39043 ft 502 kts 139°
2026-05-06 10:26 19.04390 61.25010 39041 ft 502 kts 139°
2026-05-06 10:27 18.99167 61.29899 39039 ft 500 kts 139°
2026-05-06 10:27 18.93948 61.34779 39040 ft 501 kts 139°
2026-05-06 10:28 18.88720 61.39663 39043 ft 502 kts 139°
2026-05-06 10:28 18.83522 61.44515 39041 ft 501 kts 139°
2026-05-06 10:29 18.78302 61.49384 39043 ft 501 kts 139°
2026-05-06 10:29 18.73073 61.54257 39028 ft 501 kts 139°
2026-05-06 10:30 18.67861 61.59109 39039 ft 500 kts 139°
2026-05-06 10:30 18.62646 61.63960 39041 ft 498 kts 139°
2026-05-06 10:31 18.57437 61.68802 39040 ft 499 kts 139°
2026-05-06 10:31 18.52251 61.73618 39038 ft 499 kts 139°
2026-05-06 10:32 18.47043 61.78451 39037 ft 498 kts 139°
2026-05-06 10:32 18.41846 61.83268 39039 ft 497 kts 139°
2026-05-06 10:33 18.36646 61.88086 39041 ft 498 kts 139°
2026-05-06 10:33 18.31452 61.92894 39041 ft 498 kts 139°
2026-05-06 10:34 18.26246 61.97707 39037 ft 497 kts 139°
2026-05-06 10:34 18.21055 62.02504 39038 ft 496 kts 139°
2026-05-06 10:35 18.15907 62.07257 39038 ft 495 kts 139°
2026-05-06 10:35 18.10731 62.12032 39037 ft 495 kts 139°
2026-05-06 10:36 18.05555 62.16803 39039 ft 495 kts 139°
2026-05-06 10:36 18.00378 62.21572 39038 ft 495 kts 139°
2026-05-06 10:37 17.95191 62.26345 39025 ft 495 kts 139°
2026-05-06 10:37 17.90015 62.31105 39041 ft 494 kts 139°
2026-05-06 10:38 17.84841 62.35858 39038 ft 494 kts 139°
2026-05-06 10:38 17.79661 62.40613 39037 ft 494 kts 139°
2026-05-06 10:39 17.74516 62.45333 39037 ft 494 kts 139°
2026-05-06 10:39 17.69334 62.50083 39027 ft 494 kts 138°
2026-05-06 10:40 17.64168 62.54814 39036 ft 492 kts 138°
2026-05-06 10:40 17.59004 62.59540 39037 ft 492 kts 139°
2026-05-06 10:41 17.53842 62.64260 39037 ft 493 kts 139°
2026-05-06 10:41 17.48677 62.68979 39039 ft 493 kts 139°
2026-05-06 10:42 17.43509 62.73697 39041 ft 492 kts 139°
2026-05-06 10:42 17.38383 62.78373 39034 ft 491 kts 139°
2026-05-06 10:43 17.33226 62.83075 39043 ft 491 kts 139°
2026-05-06 10:44 17.25485 62.90123 39041 ft 491 kts 138°
2026-05-06 10:44 17.20330 62.94814 39042 ft 491 kts 139°
2026-05-06 10:45 17.15169 62.99506 39028 ft 491 kts 139°
2026-05-06 10:45 17.10015 63.04188 39041 ft 490 kts 138°
2026-05-06 10:46 17.04873 63.08855 39026 ft 489 kts 138°
2026-05-06 10:46 16.99716 63.13529 39040 ft 490 kts 139°
2026-05-06 10:47 16.94517 63.18071 39039 ft 491 kts 140°
2026-05-06 10:47 16.89244 63.22596 39023 ft 491 kts 140°
2026-05-06 10:48 16.83980 63.27133 39026 ft 490 kts 140°
2026-05-06 10:48 16.78725 63.31681 39041 ft 490 kts 140°
2026-05-06 10:49 16.73474 63.36229 39043 ft 491 kts 140°
2026-05-06 10:49 16.68212 63.40782 39030 ft 491 kts 140°
2026-05-06 10:50 16.62953 63.45329 39034 ft 490 kts 140°
2026-05-06 10:50 16.57729 63.49841 39045 ft 490 kts 140°
2026-05-06 10:51 16.52477 63.54374 39028 ft 490 kts 140°
2026-05-06 10:51 16.47220 63.58908 39028 ft 490 kts 140°
2026-05-06 10:52 16.41969 63.63433 39043 ft 489 kts 140°
2026-05-06 10:52 16.36726 63.67950 39045 ft 490 kts 140°
2026-05-06 10:53 16.31469 63.72474 39044 ft 490 kts 140°
2026-05-06 10:53 16.26217 63.76991 39029 ft 489 kts 140°
2026-05-06 10:54 16.20968 63.81502 39028 ft 489 kts 140°
2026-05-06 10:54 16.15720 63.86009 39032 ft 489 kts 140°
2026-05-06 10:55 16.10465 63.90519 39024 ft 490 kts 140°
2026-05-06 10:55 16.05241 63.94998 39028 ft 489 kts 140°
2026-05-06 10:56 15.99993 63.99496 39041 ft 488 kts 140°
2026-05-06 10:56 15.94752 64.03985 39032 ft 488 kts 140°
2026-05-06 10:57 15.89512 64.08469 39035 ft 488 kts 140°
2026-05-06 10:57 15.84265 64.12956 39030 ft 489 kts 140°
2026-05-06 10:58 15.79012 64.17445 39032 ft 488 kts 140°
2026-05-06 10:58 15.73800 64.21897 39039 ft 488 kts 140°
2026-05-06 10:59 15.68555 64.26373 39034 ft 488 kts 140°
2026-05-06 10:59 15.63308 64.30848 39036 ft 488 kts 140°
2026-05-06 11:00 15.58062 64.35318 39043 ft 488 kts 140°
2026-05-06 11:00 15.52815 64.39787 39031 ft 487 kts 140°
2026-05-06 11:01 15.47573 64.44248 39028 ft 488 kts 140°
2026-05-06 11:01 15.42323 64.48713 39038 ft 488 kts 140°
2026-05-06 11:02 15.37105 64.53148 39039 ft 488 kts 140°
2026-05-06 11:02 15.31860 64.57603 39036 ft 487 kts 140°
2026-05-06 11:03 15.26616 64.62054 39032 ft 487 kts 140°
2026-05-06 11:03 15.21367 64.66507 39048 ft 488 kts 140°
2026-05-06 11:04 15.16144 64.70934 39035 ft 488 kts 140°
2026-05-06 11:04 15.10894 64.75381 39032 ft 487 kts 140°
2026-05-06 11:05 15.05645 64.79825 39032 ft 487 kts 140°
2026-05-06 11:05 15.00399 64.84263 39032 ft 487 kts 140°
2026-05-06 11:06 14.95145 64.88705 39035 ft 488 kts 140°
2026-05-06 11:06 14.89898 64.93138 39035 ft 487 kts 140°
2026-05-06 11:07 14.84645 64.97573 39040 ft 487 kts 140°
2026-05-06 11:07 14.79427 65.01977 39030 ft 487 kts 140°
2026-05-06 11:08 14.74171 65.06409 39029 ft 487 kts 140°
2026-05-06 11:08 14.68922 65.10832 39029 ft 487 kts 140°
2026-05-06 11:09 14.63666 65.15258 39030 ft 487 kts 140°
2026-05-06 11:09 14.58416 65.19677 39029 ft 487 kts 140°
2026-05-06 11:10 14.53164 65.24094 39033 ft 487 kts 140°
2026-05-06 11:10 14.47908 65.28508 39033 ft 487 kts 140°
2026-05-06 11:11 14.42643 65.32927 39037 ft 487 kts 140°
2026-05-06 11:11 14.37418 65.37310 39031 ft 487 kts 140°
2026-05-06 11:12 14.32164 65.41716 39030 ft 487 kts 140°
2026-05-06 11:12 14.26908 65.46120 39029 ft 487 kts 140°
2026-05-06 11:13 14.21656 65.50518 39032 ft 486 kts 140°
2026-05-06 11:13 14.16401 65.54917 39027 ft 486 kts 140°
2026-05-06 11:14 14.11141 65.59316 39028 ft 486 kts 140°
2026-05-06 11:14 14.05894 65.63702 39028 ft 486 kts 140°
2026-05-06 11:15 14.00676 65.68061 39032 ft 486 kts 140°
2026-05-06 11:15 13.95424 65.72445 39029 ft 486 kts 140°
2026-05-06 11:16 13.91020 65.76119 39032 ft 486 kts 140°
2026-05-06 11:16 13.85804 65.80470 39031 ft 486 kts 140°
2026-05-06 11:17 13.80545 65.84853 39035 ft 486 kts 140°
2026-05-06 11:17 13.75280 65.89239 39027 ft 486 kts 140°
2026-05-06 11:18 13.70021 65.93616 39030 ft 486 kts 140°
2026-05-06 11:18 13.64796 65.97963 39028 ft 485 kts 140°
2026-05-06 11:19 13.59545 66.02329 39024 ft 485 kts 140°
2026-05-06 11:19 13.54295 66.06692 39024 ft 485 kts 140°
2026-05-06 11:20 13.49036 66.11060 39028 ft 486 kts 140°
2026-05-06 11:20 13.43780 66.15422 39028 ft 485 kts 140°
2026-05-06 11:21 13.38524 66.19781 39024 ft 485 kts 140°
2026-05-06 11:21 13.33279 66.24130 39025 ft 484 kts 140°
2026-05-06 11:22 13.28064 66.28452 39023 ft 484 kts 140°
2026-05-06 11:22 13.22820 66.32794 39021 ft 484 kts 140°
2026-05-06 11:23 13.17570 66.37139 39026 ft 484 kts 140°
2026-05-06 11:23 13.12328 66.41475 39027 ft 484 kts 140°
2026-05-06 11:24 13.07077 66.45816 39022 ft 484 kts 140°
2026-05-06 11:24 13.01835 66.50147 39022 ft 484 kts 140°
2026-05-06 11:25 12.96596 66.54473 39021 ft 484 kts 140°
2026-05-06 11:25 12.91355 66.58799 39022 ft 484 kts 140°
2026-05-06 11:26 12.86146 66.63095 39021 ft 484 kts 140°
2026-05-06 11:26 12.80902 66.67418 39018 ft 484 kts 140°
2026-05-06 11:27 12.75654 66.71742 39029 ft 484 kts 140°
2026-05-06 11:27 12.70404 66.76065 39020 ft 484 kts 140°
2026-05-06 11:28 12.65156 66.80384 39024 ft 483 kts 140°
2026-05-06 11:28 12.59915 66.84695 39022 ft 483 kts 140°
2026-05-06 11:29 12.54675 66.89004 39019 ft 483 kts 140°
2026-05-06 11:29 12.49428 66.93316 39019 ft 484 kts 140°
2026-05-06 11:30 12.44205 66.97605 39023 ft 484 kts 140°
2026-05-06 11:30 12.38950 67.01918 39026 ft 483 kts 140°
2026-05-06 11:31 12.33709 67.06218 39010 ft 483 kts 140°
2026-05-06 11:31 12.28453 67.10528 39012 ft 483 kts 140°
2026-05-06 11:32 12.23242 67.14798 39012 ft 483 kts 140°
2026-05-06 11:32 12.17991 67.19099 39010 ft 483 kts 140°
2026-05-06 11:33 12.12742 67.23396 39010 ft 483 kts 140°
2026-05-06 11:33 12.07499 67.27686 39014 ft 483 kts 140°
2026-05-06 11:34 12.02253 67.31977 39016 ft 483 kts 140°
2026-05-06 11:34 11.96994 67.36276 39013 ft 483 kts 140°
2026-05-06 11:35 11.91746 67.40565 39011 ft 483 kts 140°
2026-05-06 11:35 11.86493 67.44856 39020 ft 483 kts 140°
2026-05-06 11:36 11.81281 67.49110 39011 ft 483 kts 140°
2026-05-06 11:36 11.76029 67.53395 39014 ft 483 kts 140°
2026-05-06 11:37 11.70780 67.57677 39010 ft 483 kts 140°
2026-05-06 11:37 11.65536 67.61952 39023 ft 483 kts 140°
2026-05-06 11:38 11.60285 67.66231 39012 ft 483 kts 140°
2026-05-06 11:38 11.55066 67.70480 39011 ft 483 kts 140°
2026-05-06 11:39 11.49815 67.74755 39009 ft 483 kts 140°
2026-05-06 11:39 11.44571 67.79021 39008 ft 483 kts 140°
2026-05-06 11:40 11.39318 67.83293 39012 ft 483 kts 140°
2026-05-06 11:40 11.34061 67.87566 39005 ft 483 kts 140°
2026-05-06 11:41 11.28807 67.91834 39022 ft 483 kts 140°
2026-05-06 11:41 11.23553 67.96101 39006 ft 483 kts 140°
2026-05-06 11:42 11.18293 68.00370 39011 ft 483 kts 140°
2026-05-06 11:42 11.13085 68.04595 39009 ft 481 kts 140°
2026-05-06 11:43 11.07851 68.08839 39009 ft 480 kts 140°
2026-05-06 11:43 11.02616 68.13082 39009 ft 480 kts 140°
2026-05-06 11:44 10.94797 68.19415 39011 ft 480 kts 140°
2026-05-06 11:44 10.89565 68.23651 39007 ft 481 kts 140°
2026-05-06 11:45 10.84327 68.27890 39008 ft 481 kts 141°
2026-05-06 11:45 10.79083 68.32130 39019 ft 481 kts 141°
2026-05-06 11:46 10.73851 68.36360 39006 ft 481 kts 141°
2026-05-06 11:46 10.68617 68.40589 39007 ft 481 kts 141°
2026-05-06 11:47 10.63374 68.44824 39018 ft 481 kts 141°
2026-05-06 11:47 10.58136 68.49053 39004 ft 481 kts 141°
2026-05-06 11:48 10.52927 68.53256 38998 ft 480 kts 141°
2026-05-06 11:48 10.47696 68.57476 38997 ft 479 kts 141°
2026-05-06 11:49 10.42465 68.61693 39012 ft 479 kts 141°
2026-05-06 11:49 10.37236 68.65908 38998 ft 479 kts 141°
2026-05-06 11:50 10.32006 68.70120 38999 ft 479 kts 141°
2026-05-06 11:50 10.26811 68.74303 38999 ft 479 kts 141°
2026-05-06 11:51 10.21583 68.78510 39013 ft 479 kts 141°
2026-05-06 11:51 10.16361 68.82711 38998 ft 477 kts 141°
2026-05-06 11:52 10.11161 68.86892 38994 ft 476 kts 141°
2026-05-06 11:52 10.06003 68.91039 39008 ft 476 kts 141°
2026-05-06 11:53 10.00810 68.95211 39006 ft 476 kts 141°
2026-05-06 11:53 9.95612 68.99386 39006 ft 476 kts 141°
2026-05-06 11:54 9.90419 69.03555 38992 ft 476 kts 141°
2026-05-06 11:54 9.85228 69.07720 38991 ft 476 kts 141°
2026-05-06 11:55 9.80064 69.11862 38990 ft 476 kts 141°
2026-05-06 11:55 9.74868 69.16029 39007 ft 476 kts 141°
2026-05-06 11:56 9.69672 69.20194 39007 ft 476 kts 141°
2026-05-06 11:56 9.64467 69.24358 39005 ft 477 kts 141°
2026-05-06 11:57 9.59249 69.28531 38993 ft 477 kts 141°
2026-05-06 11:57 9.54072 69.32671 38991 ft 477 kts 140°
2026-05-06 11:58 9.48876 69.36823 39009 ft 475 kts 140°
2026-05-06 11:58 9.43684 69.40973 38995 ft 475 kts 140°
2026-05-06 11:59 9.38495 69.45119 38994 ft 475 kts 140°
2026-05-06 11:59 9.33306 69.49262 38992 ft 475 kts 140°
2026-05-06 12:00 9.28143 69.53383 39001 ft 475 kts 141°
2026-05-06 12:00 9.22947 69.57528 39002 ft 475 kts 141°
2026-05-06 12:01 9.17748 69.61674 38989 ft 474 kts 140°
2026-05-06 12:01 9.12562 69.65808 38992 ft 474 kts 140°
2026-05-06 12:02 9.07377 69.69941 39005 ft 474 kts 140°
2026-05-06 12:02 9.02227 69.74044 39007 ft 474 kts 140°
2026-05-06 12:03 8.97045 69.78170 38989 ft 474 kts 140°
2026-05-06 12:03 8.92730 69.81605 39003 ft 474 kts 140°
2026-05-06 12:04 8.87544 69.85731 38991 ft 474 kts 140°
2026-05-06 12:04 8.81531 69.90515 39008 ft 472 kts 140°
2026-05-06 12:05 8.77226 69.93938 38989 ft 472 kts 140°
2026-05-06 12:05 8.72068 69.98039 38993 ft 472 kts 140°
2026-05-06 12:06 8.66894 70.02150 38990 ft 472 kts 140°
2026-05-06 12:06 8.61726 70.06255 38989 ft 472 kts 140°
2026-05-06 12:07 8.56555 70.10361 39009 ft 472 kts 140°
2026-05-06 12:07 8.51418 70.14439 38994 ft 471 kts 140°
2026-05-06 12:08 8.46258 70.18533 38996 ft 471 kts 140°
2026-05-06 12:08 8.41098 70.22626 38996 ft 471 kts 140°
2026-05-06 12:09 8.35940 70.26716 38994 ft 471 kts 140°
2026-05-06 12:09 8.30784 70.30803 38997 ft 471 kts 140°
2026-05-06 12:10 8.25629 70.34888 38992 ft 471 kts 140°
2026-05-06 12:10 8.20469 70.38976 38997 ft 471 kts 140°
2026-05-06 12:11 8.15309 70.43062 38994 ft 471 kts 140°
2026-05-06 12:11 8.10181 70.47120 38997 ft 471 kts 140°
2026-05-06 12:12 8.05024 70.51201 38993 ft 471 kts 141°
2026-05-06 12:12 7.99866 70.55281 38991 ft 471 kts 140°
2026-05-06 12:13 7.94707 70.59361 38994 ft 471 kts 140°
2026-05-06 12:13 7.89536 70.63449 38995 ft 471 kts 140°
2026-05-06 12:14 7.84376 70.67528 39001 ft 471 kts 141°
2026-05-06 12:14 7.79240 70.71585 38996 ft 471 kts 141°
2026-05-06 12:15 7.74078 70.75661 38994 ft 471 kts 141°
2026-05-06 12:15 7.68911 70.79741 38996 ft 471 kts 141°
2026-05-06 12:16 7.63739 70.83823 38994 ft 471 kts 141°
2026-05-06 12:16 7.58577 70.87896 38999 ft 471 kts 141°
2026-05-06 12:17 7.53443 70.91948 38994 ft 471 kts 141°
2026-05-06 12:17 7.48888 70.96645 38995 ft 469 kts 125°
2026-05-06 12:18 7.45254 71.02112 38994 ft 469 kts 122°
2026-05-06 12:18 7.41779 71.07690 38995 ft 469 kts 121°
2026-05-06 12:19 7.38320 71.13271 38997 ft 469 kts 122°
2026-05-06 12:19 7.34847 71.18832 38995 ft 469 kts 122°
2026-05-06 12:20 7.31380 71.24360 38997 ft 469 kts 122°
2026-05-06 12:20 7.27891 71.29915 38995 ft 469 kts 122°
2026-05-06 12:21 7.24400 71.35473 38996 ft 469 kts 122°
2026-05-06 12:21 7.20913 71.41025 38998 ft 469 kts 122°
2026-05-06 12:22 7.17417 71.46590 38994 ft 470 kts 122°
2026-05-06 12:22 7.13937 71.52125 38994 ft 470 kts 122°
2026-05-06 12:23 7.10435 71.57695 38993 ft 470 kts 122°
2026-05-06 12:23 7.06929 71.63269 38995 ft 470 kts 122°
2026-05-06 12:24 7.03420 71.68845 38995 ft 471 kts 122°
2026-05-06 12:24 6.99934 71.74384 38998 ft 471 kts 122°
2026-05-06 12:25 6.96428 71.79953 38996 ft 471 kts 122°
2026-05-06 12:25 6.92921 71.85520 38994 ft 471 kts 122°
2026-05-06 12:26 6.89413 71.91088 38992 ft 471 kts 122°
2026-05-06 12:26 6.85910 71.96646 39001 ft 470 kts 123°
2026-05-06 12:27 6.82411 72.02198 38992 ft 470 kts 123°
2026-05-06 12:27 6.78926 72.07724 38992 ft 470 kts 123°
2026-05-06 12:28 6.75422 72.13278 38995 ft 470 kts 123°
2026-05-06 12:28 6.71917 72.18832 38995 ft 470 kts 123°
2026-05-06 12:29 6.68415 72.24378 38997 ft 470 kts 123°
2026-05-06 12:29 6.64907 72.29933 38994 ft 470 kts 122°
2026-05-06 12:30 6.61402 72.35481 39001 ft 470 kts 122°
2026-05-06 12:30 6.57917 72.40997 38997 ft 470 kts 122°
2026-05-06 12:31 6.54411 72.46544 38995 ft 470 kts 122°
2026-05-06 12:31 6.50905 72.52092 39006 ft 468 kts 122°
2026-05-06 12:32 6.47417 72.57606 38991 ft 466 kts 122°
2026-05-06 12:32 6.43937 72.63104 38993 ft 467 kts 122°
2026-05-06 12:33 6.40444 72.68623 38992 ft 467 kts 122°
2026-05-06 12:33 6.36973 72.74106 38997 ft 468 kts 122°
2026-05-06 12:34 6.33478 72.79625 38997 ft 468 kts 122°
2026-05-06 12:34 6.29981 72.85145 38994 ft 468 kts 122°
2026-05-06 12:35 6.26480 72.90671 39000 ft 468 kts 122°
2026-05-06 12:35 6.22982 72.96189 38992 ft 468 kts 121°
2026-05-06 12:36 6.19492 73.01695 38990 ft 471 kts 121°
2026-05-06 12:36 6.15967 73.07252 38990 ft 470 kts 121°
2026-05-06 12:37 6.12459 73.12782 38991 ft 468 kts 121°
2026-05-06 12:37 6.08957 73.18301 38990 ft 468 kts 121°
2026-05-06 12:38 6.05451 73.23825 38993 ft 468 kts 121°
2026-05-06 12:38 6.01950 73.29338 38995 ft 468 kts 121°
2026-05-06 12:39 5.98439 73.34867 39001 ft 471 kts 121°
2026-05-06 12:39 5.94910 73.40423 38988 ft 472 kts 121°
2026-05-06 12:40 5.91391 73.45960 38988 ft 473 kts 121°
2026-05-06 12:40 5.87855 73.51522 38992 ft 473 kts 121°
2026-05-06 12:41 5.84312 73.57094 39009 ft 473 kts 121°
2026-05-06 12:41 5.80784 73.62639 39007 ft 468 kts 121°
2026-05-06 12:42 5.77281 73.68143 38998 ft 467 kts 121°
2026-05-06 12:42 5.73777 73.73649 38997 ft 468 kts 120°
2026-05-06 12:43 5.70295 73.79122 39000 ft 468 kts 121°
2026-05-06 12:43 5.66787 73.84632 39000 ft 468 kts 121°
2026-05-06 12:44 5.63280 73.90139 39000 ft 468 kts 121°
2026-05-06 12:44 5.59773 73.95644 38998 ft 468 kts 121°
2026-05-06 12:45 5.56263 74.01152 38991 ft 468 kts 121°
2026-05-06 12:46 5.51013 74.09388 38996 ft 469 kts 121°
2026-05-06 12:46 5.47490 74.14913 38997 ft 469 kts 121°
2026-05-06 12:47 5.43966 74.20439 38999 ft 470 kts 121°
2026-05-06 12:47 5.40439 74.25967 38998 ft 470 kts 121°
2026-05-06 12:48 5.36907 74.31501 38999 ft 470 kts 121°
2026-05-06 12:48 5.33401 74.36993 38994 ft 470 kts 121°
2026-05-06 12:49 5.29875 74.42516 38995 ft 470 kts 121°
2026-05-06 12:49 5.26350 74.48036 38996 ft 470 kts 121°
2026-05-06 12:50 5.22821 74.53560 38993 ft 469 kts 121°
2026-05-06 12:50 5.19295 74.59077 38993 ft 469 kts 121°
2026-05-06 12:51 5.15766 74.64600 38995 ft 469 kts 121°
2026-05-06 12:51 5.12240 74.70115 38997 ft 471 kts 121°
2026-05-06 12:52 5.08714 74.75630 38996 ft 473 kts 121°
2026-05-06 12:52 5.05730 74.80295 38996 ft 474 kts 121°
2026-05-06 12:53 5.02172 74.85857 38996 ft 474 kts 121°
2026-05-06 12:53 4.98635 74.91384 38998 ft 474 kts 121°
2026-05-06 12:54 4.95077 74.96944 39001 ft 474 kts 121°
2026-05-06 12:54 4.91515 75.02509 38999 ft 474 kts 121°
2026-05-06 12:55 4.87957 75.08066 38995 ft 474 kts 122°
2026-05-06 12:55 4.84388 75.13638 38999 ft 473 kts 122°
2026-05-06 12:56 4.80827 75.19195 38999 ft 473 kts 122°
2026-05-06 12:56 4.77286 75.24719 39002 ft 473 kts 121°
2026-05-06 12:57 4.73730 75.30268 38998 ft 472 kts 121°
2026-05-06 12:57 4.70176 75.35813 38998 ft 472 kts 121°
2026-05-06 12:58 4.66624 75.41353 39001 ft 472 kts 121°
2026-05-06 12:58 4.63074 75.46889 39001 ft 473 kts 122°
2026-05-06 12:59 4.59516 75.52435 39001 ft 473 kts 122°
2026-05-06 12:59 4.55979 75.57947 39002 ft 473 kts 122°
2026-05-06 13:00 4.52420 75.63493 39002 ft 473 kts 122°
2026-05-06 13:00 4.48858 75.69042 39004 ft 473 kts 122°
2026-05-06 13:01 4.45299 75.74584 39004 ft 473 kts 122°
2026-05-06 13:01 4.41736 75.80133 39004 ft 473 kts 122°
2026-05-06 13:02 4.38184 75.85663 39003 ft 472 kts 122°
2026-05-06 13:02 4.34630 75.91194 39003 ft 472 kts 122°
2026-05-06 13:03 4.31106 75.96679 39001 ft 472 kts 122°
2026-05-06 13:03 4.27550 76.02211 39005 ft 471 kts 122°
2026-05-06 13:04 4.23998 76.07736 39005 ft 471 kts 122°
2026-05-06 13:04 4.20441 76.13268 39006 ft 472 kts 122°
2026-05-06 13:05 4.16906 76.18764 39009 ft 472 kts 122°
2026-05-06 13:05 4.13348 76.24296 39005 ft 472 kts 122°
2026-05-06 13:06 4.09786 76.29833 39003 ft 472 kts 122°
2026-05-06 13:06 4.06223 76.35370 39003 ft 472 kts 122°
2026-05-06 13:07 4.02683 76.40869 39004 ft 472 kts 122°
2026-05-06 13:07 3.99120 76.46404 39007 ft 473 kts 122°
2026-05-06 13:08 3.95557 76.51938 39010 ft 473 kts 122°
2026-05-06 13:08 3.91994 76.57469 39009 ft 472 kts 122°
2026-05-06 13:09 3.88451 76.62972 39005 ft 472 kts 122°
2026-05-06 13:09 3.84891 76.68497 39007 ft 472 kts 122°
2026-05-06 13:10 3.81330 76.74023 39009 ft 472 kts 122°
2026-05-06 13:10 3.77769 76.79549 39008 ft 472 kts 122°
2026-05-06 13:11 3.74208 76.85074 39007 ft 472 kts 122°
2026-05-06 13:11 3.70642 76.90605 39006 ft 473 kts 122°
2026-05-06 13:12 3.67065 76.96153 39007 ft 475 kts 122°
2026-05-06 13:12 3.63484 77.01706 39007 ft 475 kts 122°
2026-05-06 13:13 3.59895 77.07268 39008 ft 475 kts 122°
2026-05-06 13:13 3.56309 77.12828 39010 ft 475 kts 122°
2026-05-06 13:14 3.52747 77.18348 39010 ft 475 kts 122°
2026-05-06 13:14 3.49157 77.23911 39007 ft 475 kts 123°
2026-05-06 13:15 3.45569 77.29470 39007 ft 475 kts 123°
2026-05-06 13:15 3.41979 77.35030 39007 ft 475 kts 123°
2026-05-06 13:16 3.38387 77.40593 39007 ft 475 kts 123°
2026-05-06 13:16 3.34793 77.46159 39013 ft 475 kts 122°
2026-05-06 13:17 3.31223 77.51685 39010 ft 475 kts 122°
2026-05-06 13:17 3.27635 77.57239 39010 ft 475 kts 122°
2026-05-06 13:18 3.24044 77.62798 39009 ft 474 kts 123°
2026-05-06 13:18 3.20457 77.68349 39010 ft 474 kts 123°
2026-05-06 13:19 3.16877 77.73887 39011 ft 474 kts 123°
2026-05-06 13:19 3.13297 77.79425 39008 ft 474 kts 123°
2026-05-06 13:20 3.09731 77.84941 39010 ft 474 kts 123°
2026-05-06 13:20 3.06144 77.90489 39013 ft 474 kts 123°
2026-05-06 13:21 3.02562 77.96028 39010 ft 474 kts 123°
2026-05-06 13:21 2.98778 78.01443 39136 ft 475 kts 128°
2026-05-06 13:21 2.96756 78.04008 39245 ft 477 kts 128°
2026-05-06 13:22 2.94675 78.06604 39333 ft 478 kts 129°
2026-05-06 13:22 2.92586 78.09186 39511 ft 477 kts 129°
2026-05-06 13:22 2.90497 78.11761 39651 ft 477 kts 129°
2026-05-06 13:22 2.88404 78.14338 39842 ft 475 kts 129°
2026-05-06 13:23 2.86321 78.16906 39997 ft 475 kts 129°
2026-05-06 13:23 2.84240 78.19473 40165 ft 474 kts 129°
2026-05-06 13:23 2.82167 78.22032 40298 ft 473 kts 129°
2026-05-06 13:23 2.80090 78.24598 40418 ft 473 kts 129°
2026-05-06 13:24 2.78020 78.27156 40544 ft 473 kts 129°
2026-05-06 13:24 2.75948 78.29716 40673 ft 473 kts 129°
2026-05-06 13:24 2.73881 78.32270 40817 ft 472 kts 129°
2026-05-06 13:24 2.71844 78.34787 40924 ft 472 kts 129°
2026-05-06 13:25 2.69779 78.37338 40994 ft 472 kts 129°
2026-05-06 13:25 2.65647 78.42442 41011 ft 471 kts 129°
2026-05-06 13:26 2.61521 78.47538 41016 ft 471 kts 128°
2026-05-06 13:26 2.57382 78.52647 41014 ft 473 kts 128°
2026-05-06 13:27 2.53247 78.57754 41013 ft 473 kts 128°
2026-05-06 13:27 2.49106 78.62868 41014 ft 473 kts 128°
2026-05-06 13:28 2.44989 78.67950 41017 ft 473 kts 128°
2026-05-06 13:28 2.40851 78.73058 41013 ft 472 kts 128°
2026-05-06 13:29 2.36717 78.78160 41019 ft 471 kts 128°
2026-05-06 13:29 2.32594 78.83248 41017 ft 471 kts 128°
2026-05-06 13:30 2.28468 78.88340 41018 ft 471 kts 128°
2026-05-06 13:30 2.24368 78.93398 41023 ft 471 kts 127°
2026-05-06 13:31 2.20247 78.98481 41020 ft 470 kts 127°
2026-05-06 13:31 2.16134 79.03556 41019 ft 469 kts 127°
2026-05-06 13:32 2.12019 79.08633 41020 ft 469 kts 128°
2026-05-06 13:32 2.07910 79.13700 41023 ft 469 kts 128°
2026-05-06 13:33 2.03803 79.18765 41021 ft 469 kts 128°
2026-05-06 13:33 1.99694 79.23832 41022 ft 469 kts 128°
2026-05-06 13:34 1.95612 79.28865 41019 ft 469 kts 128°
2026-05-06 13:34 1.91504 79.33930 41023 ft 469 kts 128°
2026-05-06 13:35 1.87395 79.38996 41023 ft 469 kts 128°
2026-05-06 13:35 1.83282 79.44066 41023 ft 469 kts 128°
2026-05-06 13:36 1.79174 79.49129 41021 ft 468 kts 128°
2026-05-06 13:36 1.75088 79.54165 41025 ft 468 kts 128°
2026-05-06 13:37 1.70981 79.59227 41019 ft 468 kts 128°
2026-05-06 13:37 1.66877 79.64285 41018 ft 468 kts 128°
2026-05-06 13:38 1.62776 79.69339 41018 ft 468 kts 128°
2026-05-06 13:38 1.58668 79.74401 41018 ft 468 kts 128°
2026-05-06 13:39 1.54587 79.79428 41017 ft 468 kts 128°
2026-05-06 13:39 1.50485 79.84482 41019 ft 468 kts 128°
2026-05-06 13:40 1.46391 79.89525 41019 ft 467 kts 128°
2026-05-06 13:40 1.42295 79.94570 41021 ft 466 kts 128°
2026-05-06 13:41 1.38207 79.99606 41022 ft 466 kts 128°
2026-05-06 13:41 1.34113 80.04648 41025 ft 466 kts 128°
2026-05-06 13:42 1.30716 80.08832 41021 ft 466 kts 128°
2026-05-06 13:42 1.25966 80.14682 41025 ft 466 kts 128°
2026-05-06 13:43 1.21876 80.19719 41019 ft 466 kts 128°
2026-05-06 13:43 1.18484 80.23896 41022 ft 465 kts 128°
2026-05-06 13:44 1.14407 80.28916 41019 ft 465 kts 128°
2026-05-06 13:44 1.10336 80.33929 41020 ft 465 kts 128°
2026-05-06 13:45 1.06249 80.38961 41021 ft 466 kts 128°
2026-05-06 13:45 1.00128 80.46497 41021 ft 466 kts 128°
2026-05-06 13:46 0.96043 80.51526 41022 ft 466 kts 128°
2026-05-06 13:46 0.91958 80.56554 41023 ft 465 kts 128°
2026-05-06 13:47 0.87888 80.61565 41027 ft 464 kts 128°
2026-05-06 13:47 0.83817 80.66576 41022 ft 464 kts 128°
2026-05-06 13:48 0.79771 80.71556 41022 ft 464 kts 128°
2026-05-06 13:48 0.75700 80.76567 41022 ft 464 kts 128°
2026-05-06 13:49 0.71625 80.81582 41022 ft 465 kts 127°
2026-05-06 13:49 0.67540 80.86610 41020 ft 466 kts 127°
2026-05-06 13:50 0.63481 80.91607 41023 ft 466 kts 127°
2026-05-06 13:50 0.59406 80.96621 41022 ft 464 kts 127°
2026-05-06 13:51 0.55336 81.01630 41026 ft 464 kts 127°
2026-05-06 13:51 0.51265 81.06640 41025 ft 463 kts 127°
2026-05-06 13:52 0.47200 81.11642 41024 ft 463 kts 127°
2026-05-06 13:52 0.43159 81.16615 41022 ft 463 kts 127°
2026-05-06 13:53 0.39093 81.21618 41022 ft 464 kts 127°
2026-05-06 13:53 0.35030 81.26619 41022 ft 463 kts 127°
2026-05-06 13:54 0.30966 81.31619 41025 ft 462 kts 127°
2026-05-06 13:54 0.26925 81.36591 41024 ft 460 kts 127°
2026-05-06 13:55 0.22882 81.41566 41026 ft 460 kts 127°
2026-05-06 13:55 0.18872 81.46501 41027 ft 460 kts 127°
2026-05-06 13:56 0.14834 81.51469 41025 ft 460 kts 127°
2026-05-06 13:56 0.10800 81.56432 41031 ft 460 kts 127°
2026-05-06 13:57 0.06763 81.61401 41027 ft 460 kts 127°
2026-05-06 13:57 0.02725 81.66369 41026 ft 460 kts 127°
2026-05-06 13:58 -0.01306 81.71329 41027 ft 459 kts 127°
2026-05-06 13:58 -0.05314 81.76260 41031 ft 460 kts 127°
2026-05-06 13:59 -0.09351 81.81228 41030 ft 460 kts 127°
2026-05-06 13:59 -0.13390 81.86198 41031 ft 460 kts 127°
2026-05-06 14:00 -0.17431 81.91170 41047 ft 460 kts 127°
2026-05-06 14:00 -0.21439 81.96102 41031 ft 460 kts 127°
2026-05-06 14:01 -0.25473 82.01066 41030 ft 460 kts 127°
2026-05-06 14:01 -0.29508 82.06031 41030 ft 460 kts 127°
2026-05-06 14:02 -0.33542 82.10996 41032 ft 460 kts 127°
2026-05-06 14:02 -0.37551 82.15928 41030 ft 460 kts 127°
2026-05-06 14:03 -0.41597 82.20908 41031 ft 463 kts 128°
2026-05-06 14:03 -0.45677 82.25930 41031 ft 467 kts 128°
2026-05-06 14:04 -0.49773 82.30970 41033 ft 466 kts 128°
2026-05-06 14:04 -0.53862 82.36001 41030 ft 466 kts 128°
2026-05-06 14:05 -0.57946 82.41027 41028 ft 466 kts 128°
2026-05-06 14:05 -0.61999 82.46014 41033 ft 465 kts 128°
2026-05-06 14:06 -0.66082 82.51040 41040 ft 465 kts 128°
2026-05-06 14:06 -0.70168 82.56069 41034 ft 465 kts 128°
2026-05-06 14:07 -0.74246 82.61089 41037 ft 465 kts 128°
2026-05-06 14:07 -0.78327 82.66112 41030 ft 467 kts 128°
2026-05-06 14:08 -0.82443 82.71178 41131 ft 470 kts 128°
2026-05-06 14:08 -0.84501 82.73705 41343 ft 467 kts 128°
2026-05-06 14:08 -0.86522 82.76177 41604 ft 464 kts 128°
2026-05-06 14:09 -0.88566 82.78664 41765 ft 462 kts 129°
2026-05-06 14:09 -0.90618 82.81140 41835 ft 463 kts 129°
2026-05-06 14:09 -0.94788 82.86100 41752 ft 469 kts 129°
2026-05-06 14:10 -0.99061 82.91078 41811 ft 471 kts 130°
2026-05-06 14:10 -1.01212 82.93540 41954 ft 469 kts 130°
2026-05-06 14:10 -1.03372 82.95977 42109 ft 467 kts 131°
2026-05-06 14:11 -1.05541 82.98393 42226 ft 467 kts 131°
2026-05-06 14:11 -1.07727 83.00796 42270 ft 468 kts 131°
2026-05-06 14:11 -1.12169 83.05588 42165 ft 472 kts 132°
2026-05-06 14:12 -1.16669 83.10336 42165 ft 474 kts 133°
2026-05-06 14:12 -1.21255 83.15099 42180 ft 476 kts 134°
2026-05-06 14:13 -1.25880 83.19831 42340 ft 473 kts 134°
2026-05-06 14:13 -1.28195 83.22170 42463 ft 471 kts 134°
2026-05-06 14:13 -1.30508 83.24487 42549 ft 471 kts 135°
2026-05-06 14:14 -1.35180 83.29100 42477 ft 473 kts 135°
2026-05-06 14:14 -1.39920 83.33691 42380 ft 476 kts 136°
2026-05-06 14:15 -1.44713 83.38250 42470 ft 474 kts 136°
2026-05-06 14:15 -1.49495 83.42711 42588 ft 472 kts 137°
2026-05-06 14:16 -1.54365 83.47156 42548 ft 474 kts 137°
2026-05-06 14:16 -1.59302 83.51536 42495 ft 475 kts 138°
2026-05-06 14:17 -1.64283 83.55858 42581 ft 473 kts 139°
2026-05-06 14:17 -1.69288 83.60117 42677 ft 471 kts 140°
2026-05-06 14:18 -1.74305 83.64294 42608 ft 473 kts 140°
2026-05-06 14:18 -1.79412 83.68452 42543 ft 474 kts 141°
2026-05-06 14:19 -1.84561 83.72553 42583 ft 473 kts 141°
2026-05-06 14:19 -1.89748 83.76592 42625 ft 472 kts 142°
2026-05-06 14:20 -1.94981 83.80572 42559 ft 474 kts 143°
2026-05-06 14:20 -2.00284 83.84510 42499 ft 474 kts 143°
2026-05-06 14:21 -2.05580 83.88358 42582 ft 473 kts 144°
2026-05-06 14:21 -2.10933 83.92167 42643 ft 471 kts 145°
2026-05-06 14:22 -2.16264 83.95960 42748 ft 468 kts 145°
2026-05-06 14:22 -2.21574 83.99733 42737 ft 469 kts 145°
2026-05-06 14:23 -2.26913 84.03495 42614 ft 470 kts 146°
2026-05-06 14:23 -2.32303 84.07225 42487 ft 472 kts 146°
2026-05-06 14:24 -2.37747 84.10874 42457 ft 473 kts 147°
2026-05-06 14:24 -2.43270 84.14450 42552 ft 471 kts 148°
2026-05-06 14:25 -2.48831 84.17918 42603 ft 471 kts 149°
2026-05-06 14:25 -2.54465 84.21295 42553 ft 472 kts 150°
2026-05-06 14:26 -2.60172 84.24577 42529 ft 473 kts 150°
2026-05-06 14:26 -2.65923 84.27754 42572 ft 472 kts 152°
2026-05-06 14:27 -2.71734 84.30864 42457 ft 475 kts 153°
2026-05-06 14:27 -2.77586 84.33920 42350 ft 478 kts 153°
2026-05-06 14:28 -2.83502 84.36936 42468 ft 475 kts 154°
2026-05-06 14:28 -2.89416 84.39878 42594 ft 474 kts 154°
2026-05-06 14:29 -2.95361 84.42763 42511 ft 476 kts 155°
2026-05-06 14:29 -3.01358 84.45607 42456 ft 477 kts 155°
2026-05-06 14:30 -3.06359 84.47931 42516 ft 476 kts 156°
2026-05-06 14:30 -3.13373 84.51134 42541 ft 477 kts 156°
2026-05-06 14:31 -3.18424 84.53401 42460 ft 479 kts 156°
2026-05-06 14:31 -3.24512 84.56102 42448 ft 479 kts 156°
2026-05-06 14:32 -3.30619 84.58791 42539 ft 478 kts 156°
2026-05-06 14:32 -3.36708 84.61462 42598 ft 477 kts 156°
2026-05-06 14:33 -3.42746 84.64112 42567 ft 478 kts 156°
2026-05-06 14:33 -3.48851 84.66788 42467 ft 480 kts 156°
2026-05-06 14:34 -3.54956 84.69547 42415 ft 482 kts 156°
2026-05-06 14:34 -3.61022 84.72418 42479 ft 481 kts 156°
2026-05-06 14:35 -3.67036 84.75321 42603 ft 479 kts 155°
2026-05-06 14:35 -3.73067 84.78214 42534 ft 481 kts 156°
2026-05-06 14:36 -3.79158 84.81047 42428 ft 484 kts 157°
2026-05-06 14:36 -3.85328 84.83810 42321 ft 487 kts 158°
2026-05-06 14:37 -3.91550 84.86517 42360 ft 487 kts 158°
2026-05-06 14:37 -3.97783 84.89137 42518 ft 484 kts 159°
2026-05-06 14:38 -4.04048 84.91649 42488 ft 486 kts 160°
2026-05-06 14:38 -4.10354 84.94060 42413 ft 488 kts 161°
2026-05-06 14:39 -4.16717 84.96397 42536 ft 485 kts 162°
2026-05-06 14:39 -4.23121 84.98609 42342 ft 492 kts 162°
2026-05-06 14:40 -4.26404 84.99690 42044 ft 499 kts 162°
2026-05-06 14:40 -4.29736 85.00758 41858 ft 503 kts 163°
2026-05-06 14:40 -4.36412 85.02827 42095 ft 498 kts 163°
2026-05-06 14:41 -4.39715 85.03818 42391 ft 493 kts 163°
2026-05-06 14:41 -4.42993 85.04780 42619 ft 489 kts 164°
2026-05-06 14:41 -4.49550 85.06642 42406 ft 497 kts 165°
2026-05-06 14:42 -4.52906 85.07570 42144 ft 503 kts 165°
2026-05-06 14:42 -4.56300 85.08494 42016 ft 505 kts 165°
2026-05-06 14:42 -4.63065 85.10300 42284 ft 500 kts 165°
2026-05-06 14:43 -4.66433 85.11174 42410 ft 498 kts 165°
2026-05-06 14:43 -4.69794 85.12028 42436 ft 499 kts 165°
2026-05-06 14:43 -4.76511 85.13681 42396 ft 501 kts 166°
2026-05-06 14:44 -4.83319 85.15273 42323 ft 504 kts 167°
2026-05-06 14:45 -4.93565 85.17502 42531 ft 499 kts 168°
2026-05-06 14:45 -5.00404 85.18868 42431 ft 503 kts 169°
2026-05-06 14:46 -5.07314 85.20147 42366 ft 505 kts 169°
2026-05-06 14:46 -5.14194 85.21303 42410 ft 504 kts 170°
2026-05-06 14:47 -5.21118 85.22349 42562 ft 502 kts 171°
2026-05-06 14:47 -5.28062 85.23276 42478 ft 504 kts 173°
2026-05-06 14:48 -5.35033 85.24089 42466 ft 504 kts 173°
2026-05-06 14:48 -5.42018 85.24780 42527 ft 503 kts 174°
2026-05-06 14:49 -5.48981 85.25365 42583 ft 503 kts 175°
2026-05-06 14:49 -5.55933 85.25858 42499 ft 504 kts 175°
2026-05-06 14:50 -5.62938 85.26279 42486 ft 504 kts 176°
2026-05-06 14:50 -5.69943 85.26631 42569 ft 503 kts 176°
2026-05-06 14:51 -5.76956 85.26922 42533 ft 504 kts 177°
2026-05-06 14:51 -5.83964 85.27163 42498 ft 505 kts 177°
2026-05-06 14:52 -5.90953 85.27343 42508 ft 504 kts 178°
2026-05-06 14:52 -5.97973 85.27452 42537 ft 504 kts 179°
2026-05-06 14:53 -6.04978 85.27488 42561 ft 504 kts 179°
2026-05-06 14:53 -6.11997 85.27443 42543 ft 503 kts 180°
2026-05-06 14:54 -6.18963 85.27318 42541 ft 503 kts 181°
2026-05-06 14:54 -6.25979 85.27107 42553 ft 504 kts 181°
2026-05-06 14:55 -6.32981 85.26795 42548 ft 503 kts 182°
2026-05-06 14:55 -6.39981 85.26386 42547 ft 503 kts 183°
2026-05-06 14:56 -6.46928 85.25876 42502 ft 505 kts 184°
2026-05-06 14:56 -6.50447 85.25578 42383 ft 508 kts 185°
2026-05-06 14:56 -6.53973 85.25256 42301 ft 510 kts 185°
2026-05-06 14:57 -6.61036 85.24533 42331 ft 509 kts 186°
2026-05-06 14:57 -6.64552 85.24121 42450 ft 507 kts 187°
2026-05-06 14:57 -6.68045 85.23662 42520 ft 506 kts 187°
2026-05-06 14:58 -6.75023 85.22613 42512 ft 507 kts 189°
2026-05-06 14:58 -6.81961 85.21428 42395 ft 510 kts 189°
2026-05-06 14:59 -6.88974 85.20142 42336 ft 512 kts 191°
2026-05-06 14:59 -6.95979 85.18788 42416 ft 511 kts 191°
2026-05-06 15:00 -7.02944 85.17356 42499 ft 511 kts 192°
2026-05-06 15:00 -7.09912 85.15845 42442 ft 513 kts 193°
2026-05-06 15:01 -7.16873 85.14259 42465 ft 513 kts 193°
2026-05-06 15:01 -7.23800 85.12583 42545 ft 511 kts 194°
2026-05-06 15:02 -7.30658 85.10818 42542 ft 512 kts 195°
2026-05-06 15:02 -7.37549 85.08934 42496 ft 513 kts 196°
2026-05-06 15:03 -7.44396 85.06947 42521 ft 512 kts 197°
2026-05-06 15:03 -7.51217 85.04853 42563 ft 512 kts 198°
2026-05-06 15:04 -7.58013 85.02648 42501 ft 514 kts 199°
2026-05-06 15:04 -7.61420 85.01507 42382 ft 518 kts 199°
2026-05-06 15:04 -7.64800 85.00350 42282 ft 520 kts 200°
2026-05-06 15:05 -7.71626 84.97929 42352 ft 518 kts 201°
2026-05-06 15:05 -7.75003 84.96685 42476 ft 516 kts 201°
2026-05-06 15:05 -7.78359 84.95417 42568 ft 514 kts 202°
2026-05-06 15:06 -7.85045 84.92792 42534 ft 516 kts 203°
2026-05-06 15:06 -7.91682 84.90048 42422 ft 519 kts 204°
2026-05-06 15:07 -7.98316 84.87167 42511 ft 516 kts 205°
2026-05-06 15:07 -8.04855 84.84186 42635 ft 514 kts 206°
2026-05-06 15:08 -8.11326 84.81081 42563 ft 516 kts 207°
2026-05-06 15:08 -8.17717 84.77847 42504 ft 517 kts 208°
2026-05-06 15:09 -8.24067 84.74464 42570 ft 515 kts 210°
2026-05-06 15:09 -8.30339 84.70951 42623 ft 514 kts 211°
2026-05-06 15:10 -8.36526 84.67303 42542 ft 516 kts 212°
2026-05-06 15:10 -8.42640 84.63496 42513 ft 516 kts 214°
2026-05-06 15:11 -8.48612 84.59567 42589 ft 514 kts 215°
2026-05-06 15:11 -8.54529 84.55499 42619 ft 514 kts 216°
2026-05-06 15:12 -8.60380 84.51335 42563 ft 515 kts 217°
2026-05-06 15:12 -8.66184 84.47080 42570 ft 514 kts 218°